Terminal Aerodrome Forecast
Issued by NWS Greer, SC

Home | Current Version | Previous Version | Text Only | Print | Product List | Glossary On
Versions: 1 2 3 4 5 6 7 8 9 10 11 12 13 14 15 16 17 18 19 20 21 22 23 24 25 26 27 28 29 30 31 32 33 34 35 36 37 38 39 40 41 42 43 44 45 46 47 48 49 50
370
FTUS42 KGSP 281740
TAFCLT
TAF
KCLT 281740Z 2818/2918 20008KT P6SM SCT027
     FM290900 16002KT 3SM BR BKN008
     FM291200 19006KT P6SM SCT008
     FM291400 19006KT P6SM SCT015
     FM291600 20007KT P6SM SCT150=

USA.gov is the U.S. government's official web portal to all federal, state and local government web resources and services.